KQ4UWH Weather Reports


time (UTC)temp
C
wind
direction
speed
KPH
gust
KPH
rain 1hr
cm
rain 24hr
cm
rain mn
cm
humidity
%
barometer
mb
20260505075717 14 109 0.0 0.0 0.00 0.00 0.00 64 1239.7
20260505075215 14 111 0.0 0.0 0.00 0.00 0.00 65 1239.7
20260505074712 14 126 0.0 0.0 0.00 0.00 0.00 63 1239.7
20260505074209 14 144 0.0 0.0 0.00 0.00 0.00 64 1239.7
20260505073706 13 129 0.0 0.0 0.00 0.00 0.00 64 1239.7
20260505073204 13 134 0.0 0.0 0.00 0.00 0.00 67 1239.7
20260505072700 12 119 0.0 0.0 0.00 0.00 0.00 71 1239.7
20260505072157 11 101 0.0 0.0 0.00 0.00 0.00 79 1239.7
20260505071652 11 96 0.0 0.0 0.00 0.00 0.00 82 1239.7
20260505071150 11 97 0.0 0.0 0.00 0.00 0.00 84 1239.7
20260505070647 11 109 0.0 0.0 0.00 0.00 0.00 82 1239.7
20260505070143 11 93 0.0 0.0 0.00 0.00 0.00 81 1239.7
20260505065639 11 94 0.0 0.0 0.00 0.00 0.00 81 1239.7
20260505065136 11 110 0.0 0.0 0.00 0.00 0.00 80 1239.7
20260505064633 11 101 0.0 0.0 0.00 0.00 0.00 78 1239.7
20260505064131 11 96 0.0 0.0 0.00 0.00 0.00 78 1239.7
20260505063628 11 93 0.0 0.0 0.00 0.00 0.00 77 1239.7
20260505063124 11 96 0.0 0.0 0.00 0.00 0.00 77 1239.7
20260505062621 11 97 0.0 0.0 0.00 0.00 0.00 78 1239.7
20260505062118 11 105 0.0 0.0 0.00 0.00 0.00 78 1239.7
20260505061615 11 100 0.0 0.0 0.00 0.00 0.00 76 1239.7
20260505061113 12 100 0.0 0.0 0.00 0.00 0.00 76 1239.7
20260505060610 12 128 0.0 0.0 0.00 0.00 0.00 75 1239.7
20260505060107 12 97 0.0 0.0 0.00 0.00 0.00 74 1239.7
20260505055602 12 106 0.0 0.0 0.00 0.00 0.00 74 1239.7
20260505055059 12 101 0.0 0.0 0.00 0.00 0.00 73 1239.7
20260505054556 12 101 0.0 0.0 0.00 0.00 0.00 74 1239.7
20260505054055 12 111 0.0 0.0 0.00 0.00 0.00 74 1239.7
20260505053551 12 97 0.0 0.0 0.00 0.00 0.00 77 1239.7
20260505053048 12 97 0.0 0.0 0.00 0.00 0.00 78 1239.7
20260505052545 12 91 0.0 0.0 0.00 0.00 0.00 77 1239.7
20260505052043 12 91 0.0 0.0 0.00 0.00 0.00 73 1239.7
20260505051539 12 104 0.0 0.0 0.00 0.00 0.00 72 1239.7
20260505051037 12 104 0.0 0.0 0.00 0.00 0.00 72 1239.7
20260505050535 13 104 0.0 0.0 0.00 0.00 0.00 73 1239.7
20260505041503 13 104 0.0 0.0 0.00 0.00 0.00 70 1239.7
20260505041000 13 104 0.0 0.0 0.00 0.00 0.00 70 1239.7
20260505040457 13 104 0.0 0.0 0.00 0.00 0.00 69 1239.7
20260505035954 13 104 0.0 0.0 0.00 0.00 0.00 68 1239.7
20260505035450 13 104 0.0 0.0 0.00 0.00 0.00 69 1239.7
20260505034948 13 106 0.0 0.0 0.00 0.00 0.00 69 1239.7
20260505034444 13 100 0.0 0.0 0.00 0.00 0.00 69 1239.7
20260505033941 13 100 0.0 0.0 0.00 0.00 0.00 69 1239.7
20260505033437 13 101 0.0 0.0 0.00 0.00 0.00 69 1239.7
20260505032936 13 101 0.0 0.0 0.00 0.00 0.00 69 1239.7
20260505032433 13 100 0.0 0.0 0.00 0.00 0.00 67 1239.7
20260505031929 14 100 0.0 0.0 0.00 0.00 0.00 68 1239.7
20260505031426 14 99 0.0 0.0 0.00 0.00 0.00 66 1239.7
20260505030923 14 99 0.0 0.0 0.00 0.00 0.00 67 1239.7
20260505030419 14 96 0.0 0.0 0.00 0.00 0.00 66 1239.7
20260505025915 14 96 0.0 0.0 0.00 0.00 0.00 68 1239.7
20260505025412 14 96 0.0 0.0 0.00 0.00 0.00 65 1239.7
20260505024911 15 96 0.0 0.0 0.00 0.00 0.00 65 1239.7
20260505024408 15 93 0.0 0.0 0.00 0.00 0.00 64 1239.7
20260505023905 15 93 0.0 0.0 0.00 0.00 0.00 65 1239.7
20260505023402 15 93 0.0 0.0 0.00 0.00 0.00 64 1239.7
20260505022859 15 94 0.0 0.0 0.00 0.00 0.00 63 1239.7
20260505022356 15 94 0.0 0.0 0.00 0.00 0.00 63 1239.7
20260505021854 15 94 0.0 0.0 0.00 0.00 0.00 63 1239.7
20260505021350 15 94 0.0 0.0 0.00 0.00 0.00 63 1239.7
20260505020846 15 91 0.0 0.0 0.00 0.00 0.00 63 1239.7
20260505020341 15 99 0.0 0.0 0.00 0.00 0.00 63 1239.7
20260505015838 15 100 0.0 0.0 0.00 0.00 0.00 62 1239.7
20260505015336 15 100 0.0 0.0 0.00 0.00 0.00 61 1239.7
20260505014833 16 100 0.0 0.0 0.00 0.00 0.00 61 1239.7
20260505014330 16 103 0.0 0.0 0.00 0.00 0.00 58 1239.7
20260505013826 16 104 0.0 0.0 0.00 0.00 0.00 57 1239.7
20260505013323 16 100 0.0 0.0 0.00 0.00 0.00 60 1239.7
20260505012822 16 100 0.0 0.0 0.00 0.00 0.00 59 1239.7
20260505012319 17 95 0.0 0.0 0.00 0.00 0.00 58 1239.7
20260505011815 17 95 0.0 0.0 0.00 0.00 0.00 57 1239.7
20260505011312 17 100 0.0 0.0 0.00 0.00 0.00 56 1239.7
20260505010808 17 101 0.0 0.0 0.00 0.00 0.00 56 1239.7
20260505010304 18 101 0.0 0.0 0.00 0.00 0.00 55 1239.7
20260505005800 18 100 0.0 0.0 0.00 0.00 0.00 55 1239.7
20260505005257 18 99 0.0 0.0 0.00 0.00 0.00 54 1239.7
20260505004755 18 99 0.0 0.0 0.00 0.00 0.00 53 1239.7
20260505004250 19 100 0.0 0.0 0.00 0.00 0.00 52 1239.7
20260505003748 19 103 0.0 0.0 0.00 0.00 0.00 50 1239.7
20260505003246 19 103 0.0 0.0 0.00 0.00 0.00 52 1239.7
20260505002742 19 98 0.0 0.0 0.00 0.00 0.00 51 1239.7
20260505002239 20 98 0.0 0.0 0.00 0.00 0.00 52 1239.7
20260505001737 20 98 0.0 0.0 0.00 0.00 0.00 50 1239.7
20260505001234 20 98 0.0 0.0 0.00 0.00 0.00 50 1239.7
20260505000731 20 98 0.0 0.0 0.00 0.00 0.00 49 1239.7
20260505000229 21 98 0.0 0.0 0.00 0.00 0.00 47 1239.7
20260504235725 21 99 0.0 0.0 0.00 0.00 0.00 46 1239.7
20260504235221 21 99 0.0 0.0 0.00 0.00 0.00 45 1239.7
20260504234719 22 99 0.0 0.0 0.00 0.00 0.00 44 1239.7
20260504234216 22 99 0.0 0.0 0.00 0.00 0.00 42 1239.7
20260504233712 22 103 0.0 0.0 0.00 0.00 0.00 42 1239.7
20260504233208 22 99 0.0 0.0 0.00 0.00 0.00 41 1239.7
20260504232706 22 113 0.0 0.0 0.00 0.00 0.00 40 1239.7
20260504232202 22 107 0.0 0.0 0.00 0.00 0.00 39 1239.7
20260504231659 23 117 0.0 0.0 0.00 0.00 0.00 37 1239.7
20260504231155 23 154 0.0 0.0 0.00 0.00 0.00 35 1239.7
20260504230652 23 123 0.0 0.0 0.00 0.00 0.00 35 1239.7
20260504230151 23 121 0.0 0.0 0.00 0.00 0.00 34 1239.7
20260504225649 24 130 0.0 0.0 0.00 0.00 0.00 36 1239.7
20260504225144 24 152 0.0 1.6 0.00 0.00 0.00 33 1239.7
20260504224641 25 134 0.0 0.0 0.00 0.00 0.00 32 1239.7
20260504224138 25 110 0.0 0.0 0.00 0.00 0.00 33 1239.7
20260504223635 26 127 0.0 1.6 0.00 0.00 0.00 31 1239.7
20260504223131 25 128 0.0 0.0 0.00 0.00 0.00 31 1239.7
20260504222628 25 142 3.2 4.8 0.00 0.00 0.00 31 1239.7
20260504222125 26 189 6.4 9.7 0.00 0.00 0.00 31 1239.7
20260504221622 26 175 4.8 4.8 0.00 0.00 0.00 31 1239.7
20260504221119 26 169 3.2 3.2 0.00 0.00 0.00 30 1239.7
20260504220615 26 192 4.8 6.4 0.00 0.00 0.00 30 1239.7
20260504220114 25 96 0.0 0.0 0.00 0.00 0.00 34 1239.7
20260504215609 26 137 1.6 1.6 0.00 0.00 0.00 30 1239.7
20260504215107 26 139 3.2 4.8 0.00 0.00 0.00 32 1239.7
20260504214603 25 111 1.6 1.6 0.00 0.00 0.00 35 1239.7
20260504214059 25 100 0.0 0.0 0.00 0.00 0.00 33 1239.7
20260504213555 25 121 1.6 3.2 0.00 0.00 0.00 33 1239.7
20260504213053 25 133 0.0 0.0 0.00 0.00 0.00 33 1239.7
20260504212548 25 102 0.0 0.0 0.00 0.00 0.00 36 1239.7
20260504212046 26 148 0.0 0.0 0.00 0.00 0.00 30 1239.7
20260504211543 26 181 3.2 3.2 0.00 0.00 0.00 29 1239.7
20260504211040 25 110 1.6 1.6 0.00 0.00 0.00 31 1239.7
20260504210537 25 114 1.6 1.6 0.00 0.00 0.00 31 1239.7
20260504210033 26 152 0.0 0.0 0.00 0.00 0.00 31 1239.7
20260504205531 27 141 0.0 0.0 0.00 0.00 0.00 29 1239.7
20260504205029 27 120 1.6 3.2 0.00 0.00 0.00 30 1239.7
20260504204527 26 174 3.2 4.8 0.00 0.00 0.00 33 1239.7
20260504204026 26 160 0.0 0.0 0.00 0.00 0.00 34 1239.7
20260504203523 26 164 0.0 0.0 0.00 0.00 0.00 35 1239.7
20260504203021 26 83 0.0 0.0 0.00 0.00 0.00 31 1239.7
20260504202516 26 168 0.0 1.6 0.00 0.00 0.00 31 1239.7
20260504202013 27 126 0.0 0.0 0.00 0.00 0.00 31 1239.7
20260504201510 27 116 3.2 3.2 0.00 0.00 0.00 30 1239.7
20260504201008 26 182 1.6 4.8 0.00 0.00 0.00 31 1239.7
20260504200504 26 171 1.6 1.6 0.00 0.00 0.00 29 1239.7
20260504200000 26 59 0.0 0.0 0.00 0.00 0.00 28 1239.7
20260504195456 25 139 0.0 0.0 0.00 0.00 0.00 28 1239.7
20260504194953 25 78 0.0 0.0 0.00 0.00 0.00 29 1239.7
20260504194449 25 62 1.6 1.6 0.00 0.00 0.00 30 1239.7
20260504193945 26 143 1.6 3.2 0.00 0.00 0.00 29 1239.7
20260504193443 25 141 1.6 3.2 0.00 0.00 0.00 32 1239.7
20260504192941 25 122 1.6 1.6 0.00 0.00 0.00 29 1239.7
20260504192438 25 61 0.0 1.6 0.00 0.00 0.00 30 1239.7
20260504191937 25 87 0.0 1.6 0.00 0.00 0.00 33 1239.7
20260504191435 26 129 3.2 3.2 0.00 0.00 0.00 31 1239.7
20260504190936 25 94 0.0 0.0 0.00 0.00 0.00 34 1239.7
20260504190432 25 104 0.0 0.0 0.00 0.00 0.00 36 1239.7
20260504185928 25 71 3.2 4.8 0.00 0.00 0.00 35 1239.7
20260504185426 25 197 0.0 3.2 0.00 0.00 0.00 35 1239.7
20260504184921 25 88 0.0 1.6 0.00 0.00 0.00 37 1239.7
20260504184418 25 98 0.0 0.0 0.00 0.00 0.00 35 1239.7
20260504183914 25 52 0.0 0.0 0.00 0.00 0.00 34 1239.7
20260504183411 25 59 1.6 3.2 0.00 0.00 0.00 33 1239.7
20260504182909 25 93 0.0 0.0 0.00 0.00 0.00 32 1239.7
20260504182406 25 87 0.0 0.0 0.00 0.00 0.00 33 1239.7
20260504181902 25 95 0.0 0.0 0.00 0.00 0.00 36 1239.7
20260504181400 25 118 1.6 3.2 0.00 0.00 0.00 35 1239.7
20260504180859 24 141 0.0 0.0 0.00 0.00 0.00 34 1239.7
20260504180357 24 85 1.6 1.6 0.00 0.00 0.00 37 1239.7
20260504175855 23 116 0.0 0.0 0.00 0.00 0.00 37 1239.7
20260504175351 23 153 3.2 3.2 0.00 0.00 0.00 35 1239.7
20260504174849 23 86 0.0 0.0 0.00 0.00 0.00 38 1239.7
20260504174346 23 106 0.0 0.0 0.00 0.00 0.00 37 1239.7
20260504173843 23 21 3.2 3.2 0.00 0.00 0.00 38 1239.7
20260504173340 24 198 3.2 3.2 0.00 0.00 0.00 36 1239.7
20260504172837 24 59 0.0 0.0 0.00 0.00 0.00 38 1239.7
20260504172334 23 201 3.2 3.2 0.00 0.00 0.00 37 1239.7
20260504171829 23 77 0.0 0.0 0.00 0.00 0.00 40 1239.7
20260504171327 24 92 0.0 0.0 0.00 0.00 0.00 37 1239.7
20260504170824 24 139 1.6 1.6 0.00 0.00 0.00 38 1239.7
20260504170321 23 102 0.0 1.6 0.00 0.00 0.00 39 1239.7
20260504160239 22 67 0.0 0.0 0.00 0.00 0.00 41 1239.7
20260504150704 18 131 1.6 3.2 0.00 0.00 0.00 50 1239.7
20260504150201 18 110 3.2 4.8 0.00 0.00 0.00 50 1239.7
20260504141130 15 105 0.0 1.6 0.00 0.00 0.00 60 1239.7
20260504140627 15 116 1.6 1.6 0.00 0.00 0.00 62 1239.7
20260504140123 15 93 0.0 0.0 0.00 0.00 0.00 66 1239.7
20260504130551 10 84 0.0 0.0 0.00 0.00 0.00 89 1239.7
20260504110438 6 84 0.0 0.0 0.00 0.00 0.00 97 1239.7
20260504100355 6 94 0.0 0.0 0.00 0.00 0.00 96 1239.7
20260504081748 6 93 0.0 0.0 0.00 0.00 0.00 92 1239.7
20260504081244 6 93 0.0 0.0 0.00 0.00 0.00 92 1239.7
20260504080741 6 93 0.0 0.0 0.00 0.00 0.00 91 1239.7
20260504080238 6 100 0.0 0.0 0.00 0.00 0.00 91 1239.7